Location: Bijele Vode
(45.2833°N, 16.2000°E)
Time: 10:36:29
(UTC+00:00)

Lacrosse 5 rocket - Visible Passes

Search period start: 17 January 2021 00:00
Search period end: 27 January 2021 00:00
Orbit: 461 x 635 km, 57.0° (Epoch: 17 January)

Date Brightness Start Highest point End Pass type
(mag) Time Alt. Az. Time Alt. Az. Time Alt. Az.
17 Jan 3.6 03:58:44 16° NNE 03:58:44 16° NNE 04:00:33 10° NE visible
17 Jan 2.2 05:34:27 10° NW 05:38:06 38° NNE 05:41:36 10° E visible
18 Jan 3.6 03:53:03 17° NNE 03:53:03 17° NNE 03:54:57 10° NE visible
18 Jan 1.8 05:28:41 11° NW 05:32:14 47° NNE 05:35:50 10° ESE visible
19 Jan 3.5 03:47:24 18° NNE 03:47:24 18° NNE 03:49:20 10° ENE visible
19 Jan 1.5 05:23:02 13° NW 05:26:21 60° NE 05:30:01 10° ESE visible
20 Jan 3.5 03:41:48 19° NE 03:41:48 19° NE 03:43:43 10° ENE visible
20 Jan 1.1 05:17:26 16° NW 05:20:26 78° NE 05:24:08 10° SE visible
21 Jan 3.5 03:36:15 20° NE 03:36:15 20° NE 03:38:06 10° ENE visible
21 Jan 1.0 05:11:52 20° NW 05:14:30 80° SW 05:18:11 10° SE visible
22 Jan 3.6 03:30:45 20° ENE 03:30:45 20° ENE 03:32:27 10° E visible
22 Jan 1.2 05:06:23 24° WNW 05:08:33 60° SW 05:12:11 10° SE visible
23 Jan 3.7 03:25:20 19° ENE 03:25:20 19° ENE 03:26:45 10° E visible
23 Jan 1.5 05:00:58 28° WNW 05:02:33 44° SW 05:06:05 10° SSE visible
24 Jan 3.9 03:19:59 17° E 03:19:59 17° E 03:21:02 10° E visible
24 Jan 1.9 04:55:38 29° W 04:56:33 33° SW 04:59:53 10° SSE visible
25 Jan 4.2 03:14:44 14° ESE 03:14:44 14° ESE 03:15:16 10° ESE visible
25 Jan 2.3 04:50:23 25° WSW 04:50:30 25° SW 04:53:34 10° S visible
26 Jan 2.9 04:45:14 18° SW 04:45:14 18° SW 04:47:06 10° S visible
